Starlink 32047

operational
NORAD ID: 61516 Int'l Des: 2024-183 Owner: SPXS Country: US Constellation: starlink
LEOCIRCULAR

Über Starlink 32047

Beschreibung wird geladen...

Live-Position

3D-Globus wird geladen...

Nächste Überflüge

Höhenverlauf

Altitude vs Time

uPlot chart will show altitude changes over time

Zweizeiliger Elementsatz

1 61516U 24183H 25258.64948731 -.00000862 00000-0 -17002-4 0 9993
2 61516 53.1616 235.4364 0001306 94.6226 265.4924 15.30184965 52853
Epoch: 15. Sept. 2025 • Age: 21 hours

Aktueller Status

Höhe 475.4 km
Geschwindigkeit 7.63 km/s
Subsatellitenpunkt 5.37°N, 139.18°W
Startdatum 15. Okt. 2024
Alter 0.9 years
Typ internet

Technische Details

Klassifizierung Payload
Masse 730.00 kg
Trockenmasse 700.00 kg
Gesamtmasse 730.00 kg
Länge 0.30 m
Durchmesser 4.10 m
Spannweite 29.00 m
Form Box + pan
Hersteller SPXS
Bus-Typ Starlink V2M
Phasenstatus In Orbit
Besitzer/Staat SPXS/US

Große Konstellationen

Loading constellations...